| time (UTC) | temp F | wind direction | speed knots | gust knots | rain 1hr in | rain 24hr in | rain mn in | humidity % | barometer mb |
| 20260505004140 | 63 | 258 | 1.7 | 3.5 | 0.00 | 0.00 | 0.00 | 54 | 1011.8 |
| 20260505002840 | 63 | 214 | 0.9 | 2.6 | 0.00 | 0.00 | 0.00 | 53 | 1011.6 |
| 20260505001540 | 64 | 263 | 0.9 | 1.7 | 0.00 | 0.00 | 0.00 | 53 | 1011.5 |
| 20260505000240 | 65 | 264 | 0.9 | 2.6 | 0.00 | 0.00 | 0.00 | 52 | 1011.5 |
| 20260504234940 | 65 | 197 | 1.7 | 3.5 | 0.00 | 0.00 | 0.00 | 50 | 1011.4 |
| 20260504233640 | 66 | 196 | 1.7 | 3.5 | 0.00 | 0.00 | 0.00 | 50 | 1011.3 |
| 20260504232340 | 67 | 248 | 1.7 | 5.2 | 0.00 | 0.00 | 0.00 | 50 | 1011.3 |
| 20260504231040 | 67 | 196 | 1.7 | 3.5 | 0.00 | 0.00 | 0.00 | 48 | 1011.4 |
| 20260504225740 | 68 | 244 | 1.7 | 2.6 | 0.00 | 0.00 | 0.00 | 47 | 1011.4 |
| 20260504224440 | 68 | 236 | 1.7 | 3.5 | 0.00 | 0.00 | 0.00 | 47 | 1011.3 |
| 20260504223140 | 69 | 200 | 1.7 | 3.5 | 0.00 | 0.00 | 0.00 | 45 | 1011.4 |
| 20260504221840 | 69 | 213 | 3.5 | 7.8 | 0.00 | 0.00 | 0.00 | 46 | 1011.4 |
| 20260504220540 | 69 | 163 | 2.6 | 6.1 | 0.00 | 0.00 | 0.00 | 45 | 1011.5 |
| 20260504215240 | 69 | 190 | 2.6 | 6.1 | 0.00 | 0.00 | 0.00 | 44 | 1011.5 |
| 20260504213940 | 69 | 180 | 2.6 | 5.2 | 0.00 | 0.00 | 0.00 | 45 | 1011.6 |
| 20260504212640 | 70 | 275 | 0.9 | 3.5 | 0.00 | 0.00 | 0.00 | 44 | 1011.5 |
| 20260504211340 | 70 | 197 | 0.9 | 6.1 | 0.00 | 0.00 | 0.00 | 44 | 1011.6 |
| 20260504210040 | 70 | 194 | 2.6 | 5.2 | 0.00 | 0.00 | 0.00 | 44 | 1011.4 |
| 20260504204740 | 70 | 268 | 2.6 | 6.1 | 0.00 | 0.00 | 0.00 | 45 | 1011.5 |
| 20260504203440 | 70 | 264 | 3.5 | 10.4 | 0.00 | 0.00 | 0.00 | 46 | 1011.5 |
| 20260504202140 | 71 | 197 | 3.5 | 7.0 | 0.00 | 0.00 | 0.00 | 43 | 1011.6 |
| 20260504200840 | 71 | 264 | 2.6 | 7.8 | 0.00 | 0.00 | 0.00 | 45 | 1011.9 |
| 20260504195540 | 70 | 267 | 4.3 | 10.4 | 0.00 | 0.00 | 0.00 | 43 | 1012.0 |
| 20260504194240 | 70 | 227 | 4.3 | 9.6 | 0.00 | 0.00 | 0.00 | 43 | 1012.0 |
| 20260504192940 | 70 | 254 | 2.6 | 4.3 | 0.00 | 0.00 | 0.00 | 45 | 1012.3 |
| 20260504191640 | 70 | 196 | 4.3 | 9.6 | 0.00 | 0.00 | 0.00 | 43 | 1012.5 |
| 20260504190340 | 69 | 242 | 4.3 | 9.6 | 0.00 | 0.00 | 0.00 | 44 | 1012.6 |
| 20260504185040 | 69 | 239 | 4.3 | 11.3 | 0.00 | 0.00 | 0.00 | 43 | 1012.7 |
| 20260504183740 | 69 | 208 | 2.6 | 6.1 | 0.00 | 0.00 | 0.00 | 47 | 1012.9 |
| 20260504182440 | 69 | 265 | 2.6 | 6.1 | 0.00 | 0.00 | 0.00 | 45 | 1013.0 |
| 20260504181140 | 68 | 250 | 2.6 | 6.1 | 0.00 | 0.00 | 0.00 | 45 | 1013.2 |
| 20260504175840 | 67 | 176 | 2.6 | 9.6 | 0.00 | 0.00 | 0.00 | 44 | 1013.4 |
| 20260504174540 | 67 | 206 | 3.5 | 6.1 | 0.00 | 0.00 | 0.00 | 45 | 1013.7 |
| 20260504173240 | 67 | 198 | 2.6 | 7.8 | 0.00 | 0.00 | 0.00 | 46 | 1014.0 |
| 20260504171940 | 66 | 281 | 3.5 | 7.0 | 0.00 | 0.00 | 0.00 | 47 | 1014.2 |
| 20260504170640 | 65 | 228 | 4.3 | 7.8 | 0.00 | 0.00 | 0.00 | 48 | 1014.2 |
| 20260504160140 | 63 | 245 | 1.7 | 7.0 | 0.00 | 0.00 | 0.00 | 49 | 1015.3 |
| 20260504150940 | 61 | 248 | 4.3 | 10.4 | 0.00 | 0.00 | 0.00 | 47 | 1015.9 |
| 20260504140440 | 58 | 186 | 2.6 | 3.5 | 0.00 | 0.00 | 0.00 | 56 | 1015.9 |
| 20260504110241 | 48 | 196 | 3.5 | 5.2 | 0.00 | 0.00 | 0.00 | 59 | 1016.5 |
| 20260504081341 | 51 | 232 | 1.7 | 2.6 | 0.00 | 0.00 | 0.00 | 48 | 1016.8 |
| 20260504045841 | 53 | 261 | 3.5 | 6.1 | 0.00 | 0.00 | 0.00 | 46 | 1017.0 |
| 20260504044541 | 53 | 236 | 3.5 | 7.0 | 0.00 | 0.00 | 0.00 | 46 | 1017.0 |
| 20260504043241 | 53 | 251 | 3.5 | 7.0 | 0.00 | 0.00 | 0.00 | 46 | 1016.8 |
| 20260504041941 | 53 | 246 | 3.5 | 6.1 | 0.00 | 0.00 | 0.00 | 46 | 1016.7 |
| 20260504040641 | 53 | 247 | 3.5 | 5.2 | 0.00 | 0.00 | 0.00 | 47 | 1016.5 |
| 20260504035341 | 53 | 258 | 2.6 | 5.2 | 0.00 | 0.00 | 0.00 | 47 | 1016.7 |
| 20260504034041 | 53 | 252 | 2.6 | 7.8 | 0.00 | 0.00 | 0.00 | 47 | 1016.6 |
| 20260504032741 | 53 | 254 | 1.7 | 3.5 | 0.00 | 0.00 | 0.00 | 47 | 1016.4 |
| 20260504031441 | 53 | 261 | 2.6 | 7.0 | 0.00 | 0.00 | 0.00 | 47 | 1016.4 |
| 20260504030141 | 53 | 248 | 1.7 | 4.3 | 0.00 | 0.00 | 0.00 | 47 | 1016.3 |
| 20260504024841 | 53 | 258 | 2.6 | 6.1 | 0.00 | 0.00 | 0.00 | 47 | 1016.4 |
| 20260504023541 | 53 | 251 | 1.7 | 3.5 | 0.00 | 0.00 | 0.00 | 47 | 1016.4 |
| 20260504022241 | 53 | 238 | 2.6 | 6.1 | 0.00 | 0.00 | 0.00 | 47 | 1016.5 |
| 20260504020941 | 53 | 265 | 2.6 | 6.1 | 0.00 | 0.00 | 0.00 | 48 | 1016.5 |
| 20260504015642 | 51 | 257 | 1.7 | 4.3 | 0.00 | 0.00 | 0.00 | 51 | 1016.6 |
| 20260504014341 | 50 | 270 | 0.9 | 2.6 | 0.00 | 0.00 | 0.00 | 56 | 1016.4 |
| 20260504013042 | 51 | 254 | 0.9 | 1.7 | 0.00 | 0.00 | 0.00 | 53 | 1016.2 |
| 20260504011742 | 50 | 246 | 0.9 | 3.5 | 0.00 | 0.00 | 0.00 | 53 | 1016.2 |
| 20260504010442 | 51 | 247 | 0.0 | 0.9 | 0.00 | 0.00 | 0.00 | 56 | 1016.1 |
| 20260504005142 | 51 | 247 | 0.9 | 3.5 | 0.00 | 0.00 | 0.00 | 54 | 1016.2 |